STARLINK-32769, 62602

Orbit data source: Space-Track

STARLINK-32769, 62602 is a payload satellite owned by SpaceX/Seattle (US) in LEO that was launched on Mon, 13 Jan 2025 UTC via an FALCON 9 launch vehicle from the Air Force Eastern Test Range (AFETR). Payload-class satellites include a variety of spacecraft equipped with specific instruments for various scientific and technological missions. These include communications satellites like Starlink; space stations such as the ISS; scientific satellites like the Hubble; Earth observation satellites from companies like Planet Labs, Umbra, and HawkEye 360; GPS; miniature CubeSats for education and research; and military/defense satellites.

Loading next visibility...
Identifier
62602, 2025-008R
Orbit
LEO
Last TLE update
11 hours ago
Origin
Manufacturer
SpaceX/Seattle
Mission
Operational Commercial Communications
Bus & Motor
STARLINK V2M, Unknown motor
Mass
730 kg wet, ~700 kg dry
Launch date (UTC)
2025-01-13 (6 months ago)
Launch vehicle
FALCON 9
Launch site
Air Force Eastern Test Range (AFETR)
Object type
Payload
Rocket body
Debris
Shape & HBR
Box + 2 Pan, 29 m
Radar Cross Section
33.884 m², Large (>1 m²)

Expand to show TLE details & history

TLE from 11 hours ago
0 STARLINK-32769
1 62602U 25008R   25186.51672916  .00012556  00000-0  46484-3 0  9998
2 62602  43.0032 233.7235 0001356 279.6679  80.4019 15.27592347 27822
Epoch: 2025-07-05T12:24Z
TLE epoch observation values (Epoch: 2025-07-05T12:24:05.399Z)
Latitude
-0.00005°
Longitude
123.94731°
Altitude
482.633 km
Speed
7.626 km/s
True Right ascension
15h 34m 53s
True Declination
0° 00' 00"
Sunlit
Object was in full shadow at epoch
Visualization orbit readout
Latitude
-43.15983°
Longitude
32.03269°
Altitude
495.418 km
Speed
7.618 km/s
Apparent Right ascension
04h 26m 02s
Apparent Declination
-77° 40' 02"
Sunlit
Object is in daylight
Visualization observer readout
Local Sidereal Time
10:56:00
Azimuth
196.147° SSW
Elevation
-40.408°
Doppler factor
1
Orbital elements
Apogee altitude
485.887 km
Perigee altitude
484.026 km
Semi-major axis
6,863.094 km
Eccentricity
0.00014
Inclination
43.0032°
RAAN
233.7235°
Arg. of periapsis
279.6679°
True anomaly
Unknown
Mean anomaly
80.4019°
Eccentric anomaly
Unknown
Mean motion
3.81736 °/min
Orbital period
94.31 mins
BSTAR
0.00046484
Loading maneuver chart data...
Loading SW <> Apogee altitude chart data...
Loading historical data...
Loading historical data...
Loading historical data...
Loading historical data...
Loading historical data...
Loading historical data...
Loading historical data...

STARLINK-32769 Visibility forecast

Observer location: undefined°, undefined°

Span
Click to sort rows by Start time (UTC) header in descending order
Start Az.
Max El. time (UTC)
Max El. Az.
Max El.
End time (UTC)
End Az.
5 mins2025-07-06 05:50:43.805Z196.511° SSW2025-07-06 05:53:43.805Z140.876° SSE20.716°2025-07-06 05:55:43.805Z101.752° ESE
6 mins2025-07-06 07:29:43.805Z250.423° W2025-07-06 07:31:43.805Z249.115° W42.751°2025-07-06 07:35:43.805Z72.035° E
6 mins2025-07-06 09:08:43.805Z286.808° WNW2025-07-06 09:11:43.805Z24.566° NE36.786°2025-07-06 09:14:43.805Z75.503° E
5 mins2025-07-06 10:48:43.805Z291.974° WNW2025-07-06 10:50:43.805Z72.592° E43.974°2025-07-06 10:53:43.805Z104.364° ESE
4 mins2025-07-06 12:27:43.805Z249.592° W2025-07-06 12:28:43.805Z226.09° WSW23.633°2025-07-06 12:31:43.805Z160.334° S
|